Powrót do katalogu

STARLINK-37501

AktywnyŁącznośćSSO
NORAD 69296·PAYLOAD·🇺🇸 United States

Wystrzelony May 30, 2026 z Vandenberg Space Force Base

Loading…

Następne Przeloty (najbliższe 24 godziny)

TLE

ŚwieżeSource: CelesTrak SupGP

Epoka: Sep 14, 2026, 20:59 UTC

1 69296C 26119A   26257.87479167  .00038113  00000+0  11836-2 0  2575
2 69296  97.2824 282.6313 0001311  88.2851  45.1116 15.33406784    19

Śledź STARLINK-37501 w czasie rzeczywistym z AllMySat

Download on the App Store